Location: Bremen
(53.0793°N, 8.8017°E)
Time: 11:30:22
(UTC+01:00)

Vanguard 1 Rocket - Pass Details

Date: 03 December 2021
Orbit: 651 x 4224 km, 34.3° (Epoch: 19 January)

Event Time Altitude Azimuth Distance (km) Brightness Sun altitude
Rises 03:30:24 0° 226° (SW) 4,858 - -41.8°
Reaches altitude 10° 03:33:26 10° 216° (SW) 4,264 - -41.4°
Exits shadow 03:40:28 31° 181° (S) 3,677 10.2 -40.4°
Maximum altitude 03:44:12 34° 157° (SSE) 3,877 10.5 -39.8°
Drops below altitude 10° 04:01:52 10° 103° (ESE) 6,974 12.5 -37.3°
Sets 04:08:46 0° 96° (E) 8,311 13.2 -36.2°
